| time (UTC) | temp F | wind direction | speed MPH | gust MPH | rain 1hr in | rain 24hr in | rain mn in | humidity % | barometer mb |
| 20260902233016 | 92 | 180 | 3.0 | 7.0 | 0.00 | 0.00 | 0.00 | 66 | 993.6 |
| 20260902230016 | 94 | 203 | 5.0 | 12.0 | 0.00 | 0.00 | 0.00 | 59 | 993.6 |
| 20260902223016 | 95 | 203 | 6.0 | 11.0 | 0.00 | 0.00 | 0.00 | 59 | 993.6 |
| 20260902220016 | 96 | 203 | 6.0 | 12.0 | 0.00 | 0.00 | 0.00 | 58 | 993.8 |
| 20260902213016 | 96 | 203 | 7.0 | 12.0 | 0.00 | 0.00 | 0.00 | 56 | 993.9 |
| 20260902210016 | 95 | 203 | 8.0 | 15.0 | 0.00 | 0.00 | 0.00 | 57 | 994.1 |
| 20260902203016 | 95 | 203 | 8.0 | 15.0 | 0.00 | 0.00 | 0.00 | 57 | 994.3 |
| 20260902200016 | 95 | 225 | 9.0 | 16.0 | 0.00 | 0.00 | 0.00 | 57 | 994.5 |
| 20260902193036 | 94 | 203 | 9.0 | 17.0 | 0.00 | 0.00 | 0.00 | 59 | 994.7 |
| 20260902190016 | 94 | 225 | 8.0 | 15.0 | 0.00 | 0.00 | 0.00 | 58 | 994.8 |
| 20260902183036 | 93 | 225 | 8.0 | 15.0 | 0.00 | 0.00 | 0.00 | 61 | 995.1 |
| 20260902180018 | 92 | 225 | 7.0 | 14.0 | 0.00 | 0.00 | 0.00 | 61 | 995.4 |
| 20260902173037 | 92 | 225 | 7.0 | 13.0 | 0.00 | 0.00 | 0.00 | 62 | 995.8 |
| 20260902170017 | 90 | 225 | 7.0 | 12.0 | 0.00 | 0.00 | 0.00 | 64 | 996.0 |
| 20260902163036 | 89 | 225 | 5.0 | 10.0 | 0.00 | 0.00 | 0.00 | 65 | 996.1 |
| 20260902160017 | 88 | 225 | 3.0 | 8.0 | 0.00 | 0.00 | 0.00 | 66 | 996.2 |
| 20260902153017 | 87 | 225 | 3.0 | 7.0 | 0.00 | 0.00 | 0.00 | 67 | 996.1 |
| 20260902150058 | 84 | 225 | 5.0 | 11.0 | 0.00 | 0.00 | 0.00 | 70 | 996.1 |
| 20260902143017 | 82 | 225 | 6.0 | 12.0 | 0.00 | 0.00 | 0.00 | 75 | 995.9 |
| 20260902140017 | 80 | 225 | 5.0 | 22.0 | 0.00 | 0.00 | 0.00 | 78 | 996.2 |
| 20260902130017 | 78 | 203 | 6.0 | 10.0 | 0.00 | 0.00 | 0.00 | 79 | 995.5 |
| 20260902123016 | 76 | 203 | 4.0 | 8.0 | 0.00 | 0.00 | 0.00 | 83 | 995.6 |
| 20260902120017 | 75 | 203 | 4.0 | 8.0 | 0.00 | 0.00 | 0.00 | 85 | 995.5 |
| 20260902113017 | 74 | 180 | 4.0 | 7.0 | 0.00 | 0.00 | 0.00 | 84 | 995.3 |
| 20260902110057 | 75 | 180 | 4.0 | 8.0 | 0.00 | 0.00 | 0.00 | 83 | 995.3 |
| 20260902103017 | 76 | 180 | 5.0 | 8.0 | 0.00 | 0.00 | 0.00 | 82 | 995.4 |
| 20260902100016 | 76 | 180 | 4.0 | 8.0 | 0.00 | 0.00 | 0.00 | 80 | 995.5 |
| 20260902093017 | 77 | 180 | 4.0 | 6.0 | 0.00 | 0.00 | 0.00 | 79 | 995.5 |
| 20260902090038 | 78 | 203 | 4.0 | 7.0 | 0.00 | 0.00 | 0.00 | 77 | 995.3 |
| 20260902083016 | 78 | 203 | 5.0 | 9.0 | 0.00 | 0.00 | 0.00 | 76 | 995.1 |
| 20260902080017 | 79 | 203 | 6.0 | 12.0 | 0.00 | 0.00 | 0.00 | 74 | 994.7 |
| 20260902073019 | 79 | 203 | 5.0 | 8.0 | 0.00 | 0.00 | 0.00 | 74 | 994.7 |
| 20260902070037 | 78 | 203 | 4.0 | 7.0 | 0.00 | 0.00 | 0.00 | 75 | 994.8 |
| 20260902063037 | 79 | 180 | 4.0 | 8.0 | 0.00 | 0.00 | 0.00 | 75 | 995.1 |
| 20260902060017 | 79 | 180 | 4.0 | 6.0 | 0.00 | 0.00 | 0.00 | 74 | 995.1 |
| 20260902053017 | 80 | 180 | 3.0 | 5.0 | 0.00 | 0.00 | 0.00 | 71 | 995.3 |
| 20260902050016 | 81 | 203 | 4.0 | 7.0 | 0.00 | 0.00 | 0.00 | 71 | 995.4 |
| 20260902043016 | 81 | 203 | 4.0 | 6.0 | 0.00 | 0.00 | 0.00 | 72 | 995.3 |
| 20260902040016 | 81 | 180 | 4.0 | 7.0 | 0.00 | 0.00 | 0.00 | 73 | 995.3 |
| 20260902033017 | 82 | 180 | 4.0 | 6.0 | 0.00 | 0.00 | 0.00 | 72 | 995.2 |
| 20260902030036 | 83 | 158 | 4.0 | 7.0 | 0.00 | 0.00 | 0.00 | 71 | 995.0 |
| 20260902023017 | 84 | 158 | 4.0 | 6.0 | 0.00 | 0.00 | 0.00 | 69 | 994.9 |
| 20260902020016 | 84 | 180 | 4.0 | 6.0 | 0.00 | 0.00 | 0.00 | 70 | 994.8 |
| 20260902013017 | 84 | 158 | 4.0 | 7.0 | 0.00 | 0.00 | 0.00 | 70 | 994.5 |
| 20260902003017 | 88 | 158 | 3.0 | 6.0 | 0.00 | 0.00 | 0.00 | 63 | 994.3 |
| 20260902000017 | 90 | 203 | 3.0 | 6.0 | 0.00 | 0.00 | 0.00 | 63 | 994.4 |